La Grande, OR

12:05 AM PST on December 15, 2019 (GMT -0800)
La Grande-Union County

Weather History for KLGD - November, 2019

Change the Weather History Date:

Saturday, November 16, 2019

  Actual Average Record
Temperature  
Mean Temperature 43 °F -  
Max Temperature 52 °F 45 °F 60 °F (1966)
Min Temperature 34 °F 30 °F -9 °F (2014)
Degree Days  
Heating Degree Days 22    
Moisture  
Dew Point 35 °F    
Average Humidity 76    
Maximum Humidity 93    
Minimum Humidity 53    
Precipitation  
Precipitation 0.01 in - - ()
Sea Level Pressure  
Sea Level Pressure 30.35 in    
Wind  
Wind Speed 3 mph ()    
Max Wind Speed 13 mph    
Max Gust Speed -    
Visibility 10.0 miles    
Events Rain    
Averages and records for this station are not official NWS values.
T = Trace of Precipitation, MM = Missing Value Source: Averaged Metar Reports

Daily Weather History Graph

Daily Weather History Graph

Search for Another Location

Airport or City:

Astronomy

Nov. 16, 2019 Rise Set
Actual Time 6:51 AM PST 4:21 PM PST
Civil Twilight 6:19 AM PST 4:53 PM PST
Nautical Twilight 5:43 AM PST 5:29 PM PST
Astronomical Twilight 5:08 AM PST 6:04 PM PST
Moon 7:54 PM PST (11/16) 10:55 AM PST (11/16)
Length of Visible Light 10h 33m
Length of Day
9h 29m
Waning Gibbous, 81% of the Moon is Illuminated
Nov 16
Waning Gibbous
Nov 19
Last Quarter
Nov 26
New
Dec 3
First Quarter
Dec 11
Full

Hourly Weather History & Observations

Time (PST) Temp. Windchill Dew Point Humidity Pressure Visibility Wind Dir Wind Speed Gust Speed Precip Events Conditions
12:56 AM 41.0 °F 39.0 °F 37.9 °F 89% 30.27 in 10.0 mi West 3.5 mph - 0.00 in   Scattered Clouds
1:56 AM 39.0 °F 35.7 °F 37.0 °F 93% 30.31 in 10.0 mi ESE 4.6 mph - N/A   Overcast
2:56 AM 39.9 °F 37.8 °F 37.9 °F 93% 30.31 in 10.0 mi East 3.5 mph - 0.01 in Rain Light Rain
3:56 AM 37.9 °F - 36.0 °F 93% 30.32 in 10.0 mi Calm Calm - 0.00 in   Scattered Clouds
4:56 AM 37.9 °F - 35.1 °F 89% 30.34 in 10.0 mi Calm Calm - N/A   Partly Cloudy
5:56 AM 37.9 °F - 35.1 °F 89% 30.34 in 10.0 mi Calm Calm - N/A   Mostly Cloudy
6:56 AM 36.0 °F 33.3 °F 34.0 °F 93% 30.35 in 10.0 mi SE 3.5 mph - N/A   Clear
7:56 AM 34.0 °F 28.8 °F 32.0 °F 92% 30.41 in 10.0 mi SSW 5.8 mph - N/A   Clear
8:56 AM 36.0 °F - 34.0 °F 93% 30.41 in 10.0 mi Calm Calm - N/A   Clear
9:56 AM 46.0 °F 43.1 °F 39.9 °F 79% 30.41 in 10.0 mi ESE 5.8 mph - N/A   Clear
10:56 AM 48.9 °F - 37.9 °F 66% 30.39 in 10.0 mi Variable 5.8 mph - N/A   Clear
11:56 AM 51.1 °F - 36.0 °F 56% 30.36 in 10.0 mi East 3.5 mph - N/A   Clear
12:56 PM 51.1 °F - 35.1 °F 54% 30.34 in 10.0 mi Calm Calm - N/A   Clear
1:56 PM 52.0 °F - 35.1 °F 53% 30.34 in 10.0 mi Calm Calm - N/A   Mostly Cloudy
2:56 PM 52.0 °F - 35.1 °F 53% 30.32 in 10.0 mi SSW 3.5 mph - N/A   Overcast
3:56 PM 51.1 °F - 35.1 °F 54% 30.32 in 10.0 mi South 3.5 mph - N/A   Overcast
4:56 PM 48.9 °F - 36.0 °F 61% 30.33 in 10.0 mi ENE 3.5 mph - N/A   Overcast
5:56 PM 46.9 °F - 36.0 °F 66% 30.35 in 10.0 mi Calm Calm - N/A   Scattered Clouds
6:56 PM 44.1 °F 40.8 °F 33.1 °F 65% 30.35 in 10.0 mi South 5.8 mph - N/A   Clear
7:56 PM 45.0 °F 40.6 °F 33.1 °F 63% 30.35 in 10.0 mi South 8.1 mph - N/A   Clear
8:56 PM 35.1 °F 30.1 °F 30.9 °F 85% 30.37 in 10.0 mi North 5.8 mph - N/A   Clear
9:56 PM 36.0 °F - 33.1 °F 89% 30.35 in 10.0 mi Calm Calm - N/A   Clear
10:56 PM 36.0 °F 33.3 °F 32.0 °F 86% 30.32 in 10.0 mi SE 3.5 mph - N/A   Clear
11:56 PM 46.0 °F 40.2 °F 32.0 °F 58% 30.32 in 10.0 mi South 12.7 mph - N/A   Overcast